DW7281 Weather Reports


Display with metric or nautical units.
time (UTC)temp
F
wind
direction
speed
MPH
gust
MPH
rain 1hr
in
rain 24hr
in
rain mn
in
humidity
%
barometer
mb
20260504213047 59 0 0.0 5.0 0.00 0.00 0.00 93 1022.2
20260504211620 59 0 1.0 4.0 0.00 0.00 0.00 93 1022.3
20260504210049 59 0 0.0 5.0 0.00 0.00 0.00 92 1022.0
20260504204548 59 0 0.0 0.0 0.00 0.00 0.00 92 1021.9
20260504203050 59 0 0.0 0.0 0.00 0.00 0.00 92 1021.7
20260504201547 59 0 0.0 0.0 0.00 0.00 0.00 92 1021.7
20260504200045 59 0 0.0 5.0 0.00 0.00 0.00 92 1021.6
20260504194550 59 0 1.0 4.0 0.00 0.00 0.00 92 1021.5
20260504193049 59 0 0.0 0.0 0.00 0.00 0.00 92 1021.2
20260504191551 59 0 0.0 3.0 0.00 0.00 0.00 92 1021.1
20260504190059 60 39 2.0 8.0 0.00 0.00 0.00 92 1020.9
20260504184553 60 17 2.0 7.0 0.00 0.00 0.00 92 1020.7
20260504183047 60 0 0.0 7.0 0.00 0.00 0.00 92 1020.7
20260504181559 60 0 0.0 5.0 0.00 0.00 0.00 92 1020.5
20260504180053 60 0 0.0 5.0 0.00 0.00 0.00 91 1020.7
20260504174548 60 0 1.0 7.0 0.00 0.00 0.00 91 1020.7
20260504173055 60 0 1.0 7.0 0.00 0.00 0.00 92 1020.8
20260504171548 60 33 0.0 4.0 0.00 0.00 0.00 91 1020.6
20260504081550 65 0 0.0 0.0 0.00 0.00 0.00 77 1021.4
20260504044555 72 55 2.0 9.0 0.00 0.00 0.00 67 1020.7
20260504043056 73 51 2.0 9.0 0.00 0.00 0.00 67 1020.7
20260504041548 72 0 1.0 9.0 0.00 0.00 0.00 68 1020.9
20260504040111 72 0 2.0 11.0 0.00 0.00 0.00 68 1020.9
20260504034544 71 0 0.0 11.0 0.00 0.00 0.00 68 1020.9
20260504033048 71 0 1.0 9.0 0.00 0.00 0.00 70 1020.9
20260504031555 71 0 5.0 11.0 0.00 0.00 0.00 71 1021.3
20260504030044 71 0 0.0 9.0 0.00 0.00 0.00 74 1021.5
20260504024546 70 21 1.0 9.0 0.00 0.00 0.00 75 1021.6
20260504023050 69 44 1.0 9.0 0.00 0.00 0.00 79 1021.9
20260504021545 68 25 2.0 9.0 0.00 0.00 0.00 80 1022.0
20260504020055 67 0 1.0 8.0 0.00 0.00 0.00 81 1022.3
20260504014544 67 0 0.0 9.0 0.00 0.00 0.00 81 1022.8
20260504013046 66 0 0.0 7.0 0.00 0.00 0.00 82 1022.9
20260504011541 65 0 0.0 5.0 0.00 0.00 0.00 84 1023.2
20260504010050 66 34 0.0 8.0 0.00 0.00 0.00 81 1023.2
20260504004545 65 0 1.0 10.0 0.00 0.00 0.00 81 1023.3
20260504003044 66 43 2.0 10.0 0.00 0.00 0.00 81 1023.6
20260504001553 66 13 2.0 9.0 0.00 0.00 0.00 82 1023.6
20260504000051 65 34 2.0 10.0 0.00 0.00 0.00 83 1023.5
20260503234612 65 5 2.0 10.0 0.00 0.00 0.00 82 1023.6
20260503233049 65 49 3.0 12.0 0.00 0.00 0.00 83 1023.6
20260503231545 64 352 2.0 10.0 0.00 0.00 0.00 85 1023.6
20260503230044 63 20 3.0 15.0 0.00 0.00 0.00 86 1023.6
20260503224548 62 9 4.0 11.0 0.00 0.00 0.00 86 1023.4
20260503223051 62 26 4.0 12.0 0.00 0.00 0.00 87 1023.3
20260503221557 61 9 3.0 13.0 0.00 0.00 0.00 90 1023.2
20260503214545 60 36 4.0 11.0 0.00 0.00 0.00 91 1022.8